TimeCDT,TemperatureF,Dew PointF,Humidity,Sea Level PressureIn,VisibilityMPH,Wind Direction,Wind SpeedMPH,Gust SpeedMPH,PrecipitationIn,Events,Conditions,WindDirDegrees,DateUTC
12:53 AM,70.0,68.0,93,30.04,9.0,NE,3.5,-,N/A,,Clear,50,2013-08-23 05:53:00
1:53 AM,69.1,66.0,90,30.03,8.0,Calm,Calm,-,N/A,,Clear,0,2013-08-23 06:53:00
2:53 AM,68.0,66.0,93,30.02,9.0,Calm,Calm,-,N/A,,Clear,0,2013-08-23 07:53:00
3:53 AM,66.9,66.0,97,30.03,7.0,Calm,Calm,-,N/A,,Clear,0,2013-08-23 08:53:00
4:32 AM,64.4,64.4,100,30.07,1.8,North,3.5,-,N/A,,Clear,10,2013-08-23 09:32:00
4:40 AM,66.2,64.4,94,30.07,3.0,North,3.5,-,N/A,,Clear,10,2013-08-23 09:40:00
4:53 AM,66.0,64.9,96,30.03,4.0,Calm,Calm,-,N/A,,Clear,0,2013-08-23 09:53:00
5:53 AM,66.9,66.0,97,30.05,5.0,Calm,Calm,-,N/A,,Clear,0,2013-08-23 10:53:00
6:49 AM,66.2,64.4,94,30.10,2.5,NNE,3.5,-,N/A,,Clear,20,2013-08-23 11:49:00
6:53 AM,66.0,64.9,96,30.06,2.5,Calm,Calm,-,N/A,,Clear,0,2013-08-23 11:53:00
7:21 AM,68.0,66.2,94,30.10,5.0,Calm,Calm,-,N/A,,Clear,0,2013-08-23 12:21:00
7:53 AM,70.0,68.0,93,30.07,5.0,Calm,Calm,-,N/A,,Clear,0,2013-08-23 12:53:00
8:53 AM,75.0,69.1,82,30.08,9.0,Calm,Calm,-,N/A,,Clear,0,2013-08-23 13:53:00
9:53 AM,80.1,70.0,71,30.08,10.0,Calm,Calm,-,N/A,,Clear,0,2013-08-23 14:53:00
10:53 AM,84.0,69.1,61,30.08,10.0,Calm,Calm,-,N/A,,Clear,0,2013-08-23 15:53:00
11:53 AM,87.1,64.9,48,30.07,9.0,East,3.5,-,N/A,,Clear,80,2013-08-23 16:53:00
12:53 PM,89.1,64.0,43,30.06,10.0,NE,3.5,-,N/A,,Clear,40,2013-08-23 17:53:00
1:53 PM,90.0,64.0,42,30.04,10.0,Calm,Calm,-,N/A,,Clear,0,2013-08-23 18:53:00
2:53 PM,87.1,64.0,46,30.02,10.0,ESE,4.6,-,N/A,,Clear,110,2013-08-23 19:53:00
3:53 PM,90.0,64.0,42,30.01,10.0,East,8.1,-,N/A,,Clear,90,2013-08-23 20:53:00
4:53 PM,89.1,62.1,40,30.01,10.0,ENE,4.6,-,N/A,,Clear,60,2013-08-23 21:53:00
5:53 PM,89.1,57.0,34,30.00,10.0,East,3.5,-,N/A,,Clear,100,2013-08-23 22:53:00
6:53 PM,86.0,66.0,51,30.00,10.0,ENE,3.5,-,N/A,,Clear,70,2013-08-23 23:53:00
7:53 PM,82.0,69.1,65,30.00,10.0,East,3.5,-,N/A,,Clear,80,2013-08-24 00:53:00
8:53 PM,80.1,68.0,67,30.01,10.0,Calm,Calm,-,N/A,,Clear,0,2013-08-24 01:53:00
9:53 PM,79.0,69.1,72,30.02,10.0,ESE,5.8,-,N/A,,Clear,120,2013-08-24 02:53:00
10:53 PM,77.0,69.1,76,30.03,10.0,South,3.5,-,N/A,,Clear,180,2013-08-24 03:53:00
11:53 PM,73.0,68.0,84,30.04,10.0,South,4.6,-,N/A,,Clear,180,2013-08-24 04:53:00